sat.trackr.live / text

‹ back to catalog

STARLINK-5091

NORAD 54873 · 2022-177BF

PAYLOAD ACTIVE UNKNOWN

§ Identity

Operator
Country
US
Launch date
2022-12-28
Launch site
AFETR
Launch vehicle
Mass (kg)
RCS (m²)

Purposes: comms

External: N2YO · Heavens-Above · Gunter

§ Orbital elements

Epoch: 2026-09-20T21:32:09.601440Z

Period
94.27 min
Inclination
43.0025°
Eccentricity
0.0001500
Mean motion
15.27576135 rev/d
Perigee alt
482.0 km
Apogee alt
484.1 km
Semi-major
6,861.2 km
B*
1.4481e-5
RAAN
99.2574°
Arg perigee
246.4426°
Mean anomaly
113.6268°
Rev number
20,694

§ Raw data

STARLINK-50911 54873U 22177BF  26263.89733335  .00000136  00000+0  14481-4 0  99972 54873  43.0025  99.2574 0001500 246.4426 113.6268 15.27576135206943

JSON: /api/v1/satellites/54873 · /tle

For live sub-satellite position, see the globe view (requires WebGL).

§ Visibility from observer

Set your observer location to see the next 7 days of passes ≥ 10°. The values pass through the URL so the page stays shareable.

No JS? Fill the form by hand. The geolocation button needs JavaScript.